Bismarck Municipal Airport
KBIS : now visible

Airfield :











YOU CAN JOIN US ON...

 
LOGIN :

Register | Disclaimer

   EN    FR    IT 

 









Legend :    VFR   Marginal VFR   IFR   Intensive IFR   Very Intensive IFR
Visi :
Ceiling :
>= 8 km
>= 3000ft
5 to 8 km
1000 to 3000 ft
1500m to 5 km
500 to 1000 ft
800 to 1500m
200 to 500 ft
< 800m
< 200 ft
Symbols :   Thunderstorms  Fog  Heavy snow  Heavy precipitations  Wind > 20 kt






- Airport Elevation : 1661 ft
- IATA code : BIS


KBIS - Bismarck Municipal

CURRENT METAR :
  • 171752Z 00000KT 10SM CLR 01/M02 A2973 RMK AO2 SLP091 T00111022 10011 21044 58003

EXPIRED METARs :
  • 171652Z 00000KT 10SM CLR 00/M03 A2974 RMK AO2 SLP096 T00001028
  • 171552Z 00000KT 10SM OVC080 M01/M03 A2974 RMK AO2 SLP095 T10111028

TAF KBIS
Valid from the 17 at 18:00 until the 18 at 18:00 UTC


171748Z 1718/1818 VRB05KT P6SM BKN100
FM180700 21008KT P6SM BKN080 WS005/29040KT
FM181300 29018G28KT P6SM BKN050
FM181500 32023G35KT P6SM BKN025
KZMP FIR / North America



MET'MAP, your aeronautical weather chart ! - Copyright ORBIFLY December 2007 - Disclaimer

ORBIFLY MET'MAP TEAM :

Programming & Development : Alexandra Zaïnal
Concept & original design : Baudouin d'Aumeries
Assistance for programming : Marc-Olivier Méhu
Technical & hardware support : Manuel Goepfert

Contact : metmap@orbifly.com




SOURCES & CREDITS :

   NOAA       Earth
Advisory